www.pogodaiklimat.ru

Погода и климат >> Архив погоды >> Малайзия >> Sitiawan


ПОГОДА в Sitiawan

  • Прогноз погоды в Sitiawan
  • Монитор погоды в Sitiawan
  • Климат города

АРХИВ ПОГОДЫ в Sitiawan

Время (UTC), дата Ветер
(напр.,м/с)
 
Видим.   Явления Облачность Т
(С)
Тd
(С)
f
(%)
Тe
(С)
Тes
(С)
Комфортность P
(гПа)
Po
(гПа)
Тmin
(С)
Tmax
(С)
R
(мм)
R24
(мм)
S
(см)
00 14.02 штиль 0 11 км мгла 9/4 500 м
[Cb cap Ac trans Ci sp]
+24.0 +22.8 93 +32 +32 очень
душно
1014.2 1013.3 +22.1
03 14.02 В 2 11 км мгла 9/3 630 м
[Cu hum Ac lent Ci sp]
+30.6 +23.3 65 +41 +47 опасность
перегрева
1015.4 1014.5
06 14.02 З 2 11 км мгла 9/5 660 м
[Cu med, cong Ac trans Cs]
+31.9 +24.1 63 +44 +49 опасность
перегрева
1013.0 1012.1
09 14.02 З 4 11 км мгла 9/3 660 м
[Cu med, cong Ac trans Ci sp]
+32.5 +22.6 56 +42 +44 опасность
перегрева
1010.9 1010.0
12 14.02 З 2 11 км мгла 9/3 960 м
[Sc Ac trans Ci sp]
+29.3 +24.4 75 +41 +41 опасность
перегрева
1012.5 1011.6 +32.9
15 14.02 штиль 0 11 км мгла 8/3 960 м
[Sc Ac trans Ci fib]
+27.0 +24.3 85 +38 +38 очень
душно
1014.2 1013.3
18 14.02 штиль 0 9000 м мгла 8/3 960 м
[Sc Ac trans Ci fib]
+25.2 +24.2 94 +35 +35 очень
душно
1014.0 1013.1
21 14.02 штиль 0 8000 м дымка 9/3 180 м
[Sc Ac trans Ci sp]
+24.8 +24.1 96 +34 +34 очень
душно
1013.6 1012.7
00 15.02 штиль 0 9000 м дымка 9/5 360 м
[Cb calv Ac trans Ci sp]
+24.5 +23.7 95 +33 +33 очень
душно
1014.7 1013.8 +23.7
03 15.02 В 1 13 км мгла 9/4 660 м
[Cu med, cong Ac trans Ci sp]
+30.1 +25.2 75 +44 +49 опасность
перегрева
1015.6 1014.7
06 15.02 Ю 2 13 км мгла 9/4 600 м
[Cu med, cong Ac trans Ci sp]
+32.6 +25.3 66 +47 +55 опасность
перегрева
1013.1 1012.2
09 15.02 З 3 13 км мгла 6/3 500 м
[Cb calv Ac trans Ci fib]
+32.7 +25.1 64 +46 +49 опасность
перегрева
1010.5 1009.6
12 15.02 СЗ 3 11 км мгла 8/1 960 м
[Sc diur, vesp Ac trans Ci sp]
+29.0 +24.9 79 +42 +42 опасность
перегрева
1011.3 1010.4 +30.6
15 15.02 штиль 0 11 км мгла 8/3 1020 м
[Sc Ac trans Ci sp]
+27.5 +24.6 84 +39 +39 очень
душно
1013.2 1012.3
18 15.02 штиль 0 8000 м мгла 9/3 1020 м
[Sc Ac trans Ci sp]
+25.7 +24.3 92 +36 +36 очень
душно
1012.7 1011.8
21 15.02 штиль 0 8000 м мгла 9/4 900 м
[Sc Ac trans Ci sp]
+24.5 +23.4 94 +33 +33 очень
душно
1011.9 1011.0
00 16.02 штиль 0 10 км мгла 9/1 960 м
[Sc Ac trans Ci sp]
+23.7 +23.0 96 +31 +32 очень
душно
1012.5 1011.6 +23.7
03 16.02 С 2 11 км мгла 8/1 660 м
[Cu hum Ac trans Ci fib]
+30.4 +24.4 70 +42 +50 опасность
перегрева
1013.6 1012.7
06 16.02 СЗ 4 13 км мгла 8/3 600 м
[Cu med, cong Ac trans Ci fib]
+33.1 +23.2 56 +44 +50 опасность
перегрева
1011.2 1010.3
09 16.02 З 4 13 км мгла 6/1 750 м
[Cu hum Ac trans Ci sp]
+32.5 +25.4 66 +47 +49 опасность
перегрева
1008.7 1007.8
12 16.02 СЗ 3 13 км мгла 6/1 900 м
[Sc Ac trans Ci sp]
+29.2 +25.1 79 +42 +42 опасность
перегрева
1008.9 1008.0 +33.7
15 16.02 З 1 9000 м мгла 8/1 360 м
[Sc Ac trans Ci sp]
+28.3 +25.5 85 +42 +42 опасность
перегрева
1010.4 1009.5
18 16.02 С 2 9000 м мгла 8/1 300 м
[Sc Ac trans Ci sp]
+26.8 +25.4 92 +39 +39 очень
душно
1009.7 1008.8
21 16.02 С 1 9000 м мгла 8/1 900 м
[Sc Ac trans Ci fib]
+25.8 +24.0 90 +36 +36 очень
душно
1009.0 1008.1
00 17.02 СВ 2 10 км мгла 8/3 630 м
[Cu Sc Ac trans Ci fib]
+24.6 +23.7 95 +33 +34 очень
душно
1010.1 1009.2 +24.6
03 17.02 С 2 10 км мгла 9/4 500 м
[Cb cap Ac trans Ci sp]
+30.6 +25.4 74 +45 +50 опасность
перегрева
1011.4 1010.5
06 17.02 З 5 10 км мгла 9/4 660 м
[Cu med, cong Ac trans Ci sp]
+33.3 +26.4 67 +50 +54 опасность
перегрева
1009.3 1008.4
09 17.02 З 4 11 км мгла 9/4 660 м
[Cu hum Ac trans Cs]
+31.6 +25.1 69 +46 +47 опасность
перегрева
1007.4 1006.5
12 17.02 С 2 9000 м мгла 9/4 960 м
[Sc Ac trans Ci sp]
+29.3 +25.5 80 +43 +43 опасность
перегрева
1007.8 1006.9 +33.5
15 17.02 В 1 9000 м мгла 9/3 960 м
[Sc Ac trans Ci sp]
+27.9 +25.9 89 +42 +42 опасность
перегрева
1010.2 1009.3
18 17.02 штиль 0 9000 м мгла 9/3 960 м
[Sc Ac trans Cs]
+26.4 +25.0 92 +38 +38 очень
душно
1009.6 1008.7
21 17.02 штиль 0 9000 м мгла 9/3 960 м
[Sc Ac lent Ci sp]
+25.5 +24.7 95 +36 +36 очень
душно
1008.6 1007.7
00 18.02 В 1 9000 м мгла 9/6 500 м
[Cb cap Ac trans Ci sp]
+25.1 +24.3 95 +35 +35 очень
душно
1009.8 1008.9 +24.6
03 18.02 ЮВ 1 10 км мгла 9/3 630 м
[Cu hum Ac trans Ci sp]
+30.3 +25.3 75 +44 +51 опасность
перегрева
1010.3 1009.4
06 18.02 ЮЗ 3 9000 м мгла 9/5 660 м
[Cu med, cong Ac trans Ci sp]
+33.2 +25.4 64 +48 +53 опасность
перегрева
1008.5 1007.6
09 18.02 З 4 11 км мгла 9/3 660 м
[Cu med, cong Ac lent Ci sp]
+32.0 +26.1 71 +48 +50 опасность
перегрева
1006.7 1005.8
12 18.02 З 2 11 км мгла 9/3 900 м
[Sc Ac lent Cs]
+30.2 +26.2 79 +46 +46 опасность
перегрева
1007.9 1007.0 +33.6
15 18.02 В 2 8000 м мгла 9/3 960 м
[Sc Ac lent Cs]
+28.2 +26.3 89 +43 +43 опасность
перегрева
1010.5 1009.6
18 18.02 штиль 0 7000 м мгла 9/3 960 м
[Sc Ac lent Cs]
+26.2 +24.6 91 +37 +37 очень
душно
1010.2 1009.3
21 18.02 штиль 0 6000 м мгла 9/3 270 м
[Sc Ac trans Ci sp]
+25.5 +24.5 94 +36 +36 очень
душно
1008.8 1007.9
00 19.02 СВ 1 9000 м мгла 9/3 360 м
[Cu Sc Ac trans Ci sp]
+25.3 +24.4 95 +35 +36 очень
душно
1009.5 1008.6 +25.1
03 19.02 СВ 2 11 км мгла 9/1 660 м
[Cu med, cong Ac trans Ci sp]
+30.2 +25.2 75 +44 +51 опасность
перегрева
1009.9 1009.0
06 19.02 З 1 11 км мгла 9/4 600 м
[Cu med, cong Ac trans Ci sp]
+33.7 +25.6 63 +49 +57 опасность
перегрева
1007.8 1006.9
09 19.02 З 4 9000 м мгла 9/4 500 м
[Cb cap Ac lent Cs]
+32.6 +25.8 67 +48 +49 опасность
перегрева
1005.9 1005.0
12 19.02 З 2 10 км гроза, ливневой дождь 10/4 500 м
[Cb cap Ac lent Cs]
+25.6 +24.6 94 +36 +36 очень
душно
1008.6 1007.7 +34.5
15 19.02 штиль 0 10 км дымка {гроза, дождь} 9/3 900 м
[Sc Ac lent Cs]
+25.4 +24.6 95 +36 +36 очень
душно
1009.8 1008.9
18 19.02 В 1 8000 м зарница 9/3 500 м
[Cb cap Ac lent Ci sp]
+25.0 +24.2 95 +34 +34 очень
душно
1009.8 1008.9
21 19.02 СЗ 1 8000 м мгла 9/4 900 м
[Sc Ac trans Cs]
+25.2 +24.4 95 +35 +35 очень
душно
1008.8 1007.9
00 20.02 штиль 0 9000 м дымка 9/4 900 м
[Sc Ac trans Ci sp]
+24.6 +23.8 95 +33 +34 очень
душно
1009.8 1008.9 16
03 20.02 В 1 8000 м мгла 9/3 660 м
[Cu hum Ac trans Cs]
+29.2 +25.1 79 +42 +49 опасность
перегрева
1010.1 1009.2
06 20.02 ЮЗ 2 10 км мгла 9/4 660 м
[Cu med, cong Ac trans Ci sp]
+32.2 +25.3 67 +46 +53 опасность
перегрева
1007.6 1006.7
09 20.02 ЮЗ 3 10 км мгла 9/4 500 м
[Cb cap Ac trans Ci sp]
+31.1 +24.8 69 +44 +46 опасность
перегрева
1005.9 1005.0
12 20.02 З 1 10 км зарница 9/4 500 м
[Cb cap Ac trans Ci sp]
+29.2 +24.8 77 +42 +42 опасность
перегрева
1006.9 1006.0 +33.1
15 20.02 штиль 0 9000 м мгла 8/3 960 м
[Sc Ac trans Ci fib]
+27.8 +24.4 82 +39 +39 очень
душно
1009.6 1008.7
18 20.02 СЗ 1 9000 м мгла 8/3 960 м
[Sc Ac trans Ci fib]
+25.4 +23.8 91 +35 +35 очень
душно
1008.1 1007.2
21 20.02 штиль 0 7000 м дымка 9/3 180 м
[Sc Ac trans Ci sp]
+23.8 +23.3 97 +32 +32 очень
душно
1006.6 1005.7

 

Местоположение метеостанции Sitiawan (Малайзия): широта 4.22 долгота 100.70 высота над уровнем моря 8 м.

В архиве по умолчанию представлена погода в Sitiawan за последнюю неделю. Архивные данные за месяц целиком и за предыдущие месяцы, начиная с января 2011 года, Вы можете получить, выбрав интересующий диапазон дат из раскрывающегося списка и нажав кнопку "Ввод!".

Внимание! Время в таблицах - всемирное. Для получения местного времени необходимо прибавить поправку, которая в Sitiawan равна 7 ч.

Смотрите также архив погоды в соседних городах и на ближайших метеорологических станциях:

Погода в Ipoh (Малайзия) (59 км)
Погода в Cameron Highlands (Малайзия) (79 км)
Погода в Penang (Малайзия) (130 км)
Погода в Butterworth Air Base (Малайзия) (143 км)
Погода в Kuala Lumpur (Малайзия) (155 км)
Погода в Kuala Lumpur Int Airport (Малайзия) (200 км)
Погода в Alor Star (Малайзия) (223 км)
Погода в Belawan (Индонезия) (227 км)
Погода в Medan Polonia Int Airport (Индонезия) (236 км)
Погода в Langkawi (Малайзия) (258 км)

Пояснения к столбцам:

Ветер - указаны скорость ветра в м/с - средняя за 10 мин, порывы в срок и между сроками (в фигурных скобках) и направление, откуда дует ветер: С - северный, СВ - северо-восточный, В - восточный, ЮВ - юго-восточный, Ю - южный, ЮЗ - юго-западный, З - западный, СЗ - северо-западный.
Видимость - горизонтальная дальность видимости в метрах или километрах. При видимости от 1 до 10 км при отсутствии осадков обычно наблюдается дымка, при ухудшении видимости до 1 км и менее - туман. В сухую погоду видимость может ухудшаться дымом, пылью или мглою.
Явления - указаны атмосферные явления, наблюдавшиеся в срок или в последний час перед сроком; фигурными скобками обозначены явления, наблюдавшиеся между сроками (за 1-3 часа до срока); квадратными скобками обозначены град или гололедные отложения с указанием их диаметра в мм.
Облачность - указаны через наклонную черту общая и нижняя облачность в баллах и высота нижней границы облаков в метрах; квадратными скобками обозначены формы облаков: Ci - перистые, Cs - перисто-слоистые, Cc - перисто-кучевые, Ac - высококучевые, As - высокослоистые, Sc - слоисто-кучевые, Ns - слоисто-дождевые, Cu - кучевые, Cb - кучево-дождевые. Подробнее классификацию облаков см. в Атласе облаков (PDF).
T - Температура воздуха - температура, измеренная на высоте 2 м над землей.
Td - Температура точки росы - температура, при понижении до которой содержащийся в воздухе водяной пар достигнет насыщения.
f - Относительная влажность воздуха - влажноcть воздуха, измеренная на высоте 2 м над землей.
Te - Эффективная температура - температура, которую ощущает одетый по сезону человек в тени. Характеристика душности погоды. При расчете учитывается влияние влажности воздуха и скорости ветра на теплоощущения человека.
Tes - Эффективная температура на солнце - температура, которую ощущает человек, с поправкой на солнечный нагрев. Характеристика знойности погоды. Зависит от высоты солнца над горизонтом, облачности и скорости ветра. Ночью, в пасмурную погоду, а также при ветре 12 м/с и более поправка равна нулю.
P - Атмосферное давление - приведенное к уровню моря атмосферное давление.
Po - Атмосферное давление - измеренное на уровне метеостанции атмосферное давление.
Tmin - Минимальная температура - минимум температуры воздуха на высоте 2 м над землей.
Tmax - Максимальная температура - максимум температуры воздуха на высоте 2 м над землей.
R - Количество осадков - Количество выпавших осадков за период времени, мм. При наведении курсора мыши на число - период времени, за который выпало указанное количество осадков.
R24 - Количество осадков - Количество выпавших осадков за 24 часа, мм.
S - Снежный покров - Высота снежного покрова, см. При наведении курсора мыши на число - состояние снежного покрова и степень покрытия местности в баллах.